• In Deutschland
  • Länderverzeichnis
  • Für 7 Tage
  • Wassertemperatur
  • Satellitenkarten
  • Wetterkarte
  • Widgets
  • user-avatar
    Anmelden

    Stündliche Wetter Hobart

    Heute, 25 September, Montag

    Zeit Temperatur Niederschläge Wind Luftdruck Luftfeuchtigkeit
    00:00 +7°C° 0,1 mm 4 m/S 730 mmHg 91%
    01:00 +7°C° 0,1 mm 5 m/S 730 mmHg 91%
    02:00 +5°C° 0 mm 6 m/S 731 mmHg 90%
    03:00 +4°C° 0 mm 6 m/S 731 mmHg 88%
    04:00 +5°C° 0 mm 5 m/S 731 mmHg 88%
    05:00 +4°C° 0 mm 6 m/S 732 mmHg 86%
    06:00 +4°C° 0 mm 7 m/S 732 mmHg 85%
    07:00 +4°C° 0 mm 7 m/S 733 mmHg 84%
    08:00 +5°C° 0,1 mm 7 m/S 733 mmHg 80%
    09:00 +6°C° 0,1 mm 8 m/S 734 mmHg 77%
    10:00 +7°C° 0,1 mm 8 m/S 735 mmHg 74%
    11:00 +8°C° 0,2 mm 7 m/S 735 mmHg 74%
    12:00 +8°C° 0,2 mm 7 m/S 736 mmHg 75%
    13:00 +8°C° 0,2 mm 7 m/S 737 mmHg 76%
    14:00 +8°C° 0,2 mm 7 m/S 738 mmHg 74%
    15:00 +6°C° 0,2 mm 7 m/S 738 mmHg 73%
    16:00 +7°C° 0,2 mm 6 m/S 739 mmHg 71%
    17:00 +5°C° 0,1 mm 6 m/S 740 mmHg 77%
    18:00 +5°C° 0,1 mm 5 m/S 740 mmHg 82%
    19:00 +3°C° 0,1 mm 4 m/S 741 mmHg 88%
    20:00 +3°C° 0,1 mm 4 m/S 742 mmHg 90%
    21:00 +1°C° 0,1 mm 4 m/S 742 mmHg 92%
    22:00 +1°C° 0,1 mm 4 m/S 743 mmHg 93%
    23:00 +1°C° 0 mm 4 m/S 743 mmHg 93%

    Morgen, 26 September, Dienstag

    Zeit Temperatur Niederschläge Wind Luftdruck Luftfeuchtigkeit
    00:00 +1°C° 0 mm 4 m/S 744 mmHg 93%
    01:00 +1°C° 0 mm 4 m/S 744 mmHg 93%
    02:00 0°C° 0 mm 4 m/S 744 mmHg 93%
    03:00 0°C° 0 mm 4 m/S 744 mmHg 94%
    04:00 0°C° 0 mm 4 m/S 744 mmHg 94%
    05:00 +1°C° 0 mm 4 m/S 745 mmHg 92%
    06:00 +1°C° 0 mm 4 m/S 745 mmHg 90%
    07:00 +3°C° 0 mm 3 m/S 746 mmHg 89%
    08:00 +5°C° 0 mm 4 m/S 746 mmHg 78%
    09:00 +7°C° 0 mm 4 m/S 746 mmHg 68%
    10:00 +10°C° 0 mm 4 m/S 747 mmHg 57%
    11:00 +10°C° 0 mm 3 m/S 747 mmHg 56%
    12:00 +11°C° 0 mm 3 m/S 747 mmHg 55%
    13:00 +11°C° 0 mm 3 m/S 747 mmHg 53%
    14:00 +11°C° 0 mm 3 m/S 747 mmHg 54%
    15:00 +11°C° 0 mm 3 m/S 746 mmHg 55%
    16:00 +11°C° 0 mm 3 m/S 746 mmHg 56%
    17:00 +9°C° 0 mm 2 m/S 747 mmHg 63%
    18:00 +7°C° 0 mm 2 m/S 747 mmHg 71%
    19:00 +6°C° 0 mm 2 m/S 747 mmHg 78%
    20:00 +5°C° 0 mm 2 m/S 747 mmHg 82%
    21:00 +4°C° 0 mm 2 m/S 747 mmHg 86%
    22:00 +3°C° 0 mm 2 m/S 748 mmHg 90%
    23:00 +3°C° 0 mm 2 m/S 747 mmHg 91%

    übermorgen, 27 September, Mittwoch

    Zeit Temperatur Niederschläge Wind Luftdruck Luftfeuchtigkeit
    00:00 +2°C° 0 mm 2 m/S 747 mmHg 93%
    01:00 +2°C° 0 mm 2 m/S 747 mmHg 95%
    02:00 +2°C° 0 mm 2 m/S 747 mmHg 95%
    03:00 +1°C° 0 mm 2 m/S 746 mmHg 95%
    04:00 +2°C° 0 mm 1 m/S 746 mmHg 96%
    05:00 +3°C° 0 mm 1 m/S 745 mmHg 92%
    06:00 +4°C° 0 mm 1 m/S 745 mmHg 88%
    07:00 +4°C° 0 mm 1 m/S 745 mmHg 85%
    08:00 +6°C° 0 mm 2 m/S 744 mmHg 72%
    09:00 +9°C° 0 mm 3 m/S 743 mmHg 60%
    10:00 +12°C° 0 mm 4 m/S 743 mmHg 47%
    11:00 +11°C° 0,8 mm 4 m/S 741 mmHg 62%
    12:00 +10°C° 0,8 mm 4 m/S 740 mmHg 77%
    13:00 +8°C° 0,8 mm 4 m/S 739 mmHg 93%
    14:00 +10°C° 0,7 mm 4 m/S 738 mmHg 90%
    15:00 +11°C° 0,7 mm 4 m/S 736 mmHg 87%
    16:00 +11°C° 0,7 mm 4 m/S 735 mmHg 84%
    17:00 +11°C° 0 mm 4 m/S 735 mmHg 87%
    18:00 +10°C° 0 mm 4 m/S 734 mmHg 89%
    19:00 +8°C° 0 mm 4 m/S 734 mmHg 92%
    20:00 +8°C° 0 mm 4 m/S 733 mmHg 90%
    21:00 +7°C° 0 mm 4 m/S 733 mmHg 89%
    22:00 +7°C° 0 mm 4 m/S 732 mmHg 87%
    23:00 +7°C° 0 mm 4 m/S 732 mmHg 87%

    28 September, Donnerstag

    Zeit Temperatur Niederschläge Wind Luftdruck Luftfeuchtigkeit
    00:00 +7°C° 0 mm 4 m/S 731 mmHg 86%
    01:00 +8°C° 0 mm 4 m/S 730 mmHg 86%
    02:00 +8°C° 0 mm 4 m/S 729 mmHg 86%
    03:00 +8°C° 0 mm 4 m/S 729 mmHg 86%
    04:00 +8°C° 0 mm 4 m/S 729 mmHg 86%
    05:00 +8°C° 0,1 mm 5 m/S 730 mmHg 85%
    06:00 +8°C° 0,1 mm 7 m/S 731 mmHg 84%
    07:00 +7°C° 0,1 mm 8 m/S 732 mmHg 83%
    08:00 +7°C° 0,1 mm 8 m/S 733 mmHg 79%
    09:00 +7°C° 0,1 mm 8 m/S 734 mmHg 75%
    10:00 +7°C° 0,1 mm 8 m/S 735 mmHg 72%
    11:00 +8°C° 0 mm 7 m/S 735 mmHg 67%
    12:00 +9°C° 0 mm 7 m/S 735 mmHg 62%
    13:00 +10°C° 0 mm 7 m/S 736 mmHg 57%
    14:00 +10°C° 0 mm 7 m/S 736 mmHg 59%
    15:00 +10°C° 0 mm 7 m/S 736 mmHg 60%
    16:00 +10°C° 0 mm 7 m/S 735 mmHg 62%
    17:00 +9°C° 0,1 mm 6 m/S 736 mmHg 67%
    18:00 +8°C° 0,1 mm 6 m/S 737 mmHg 72%
    19:00 +7°C° 0,1 mm 6 m/S 737 mmHg 77%
    20:00 +5°C° 0 mm 6 m/S 738 mmHg 79%
    21:00 +5°C° 0 mm 6 m/S 738 mmHg 82%
    22:00 +4°C° 0 mm 6 m/S 738 mmHg 84%
    23:00 +4°C° 0 mm 6 m/S 738 mmHg 85%

    29 September, Freitag

    Zeit Temperatur Niederschläge Wind Luftdruck Luftfeuchtigkeit
    00:00 +4°C° 0 mm 6 m/S 738 mmHg 85%
    01:00 +3°C° 0 mm 6 m/S 738 mmHg 85%
    02:00 +3°C° 0 mm 5 m/S 738 mmHg 87%
    03:00 +2°C° 0 mm 5 m/S 738 mmHg 89%
    04:00 +3°C° 0 mm 4 m/S 738 mmHg 90%
    05:00 +4°C° 0 mm 4 m/S 739 mmHg 88%
    06:00 +4°C° 0 mm 4 m/S 739 mmHg 85%
    07:00 +5°C° 0 mm 4 m/S 739 mmHg 83%
    08:00 +6°C° 0,1 mm 5 m/S 739 mmHg 77%
    09:00 +7°C° 0,1 mm 5 m/S 739 mmHg 71%
    10:00 +8°C° 0,1 mm 6 m/S 738 mmHg 66%
    11:00 +8°C° 0,1 mm 6 m/S 738 mmHg 61%
    12:00 +9°C° 0,1 mm 7 m/S 737 mmHg 57%
    13:00 +10°C° 0,1 mm 7 m/S 736 mmHg 52%
    14:00 +10°C° 0,1 mm 7 m/S 735 mmHg 54%
    15:00 +10°C° 0,1 mm 7 m/S 735 mmHg 56%
    16:00 +10°C° 0,1 mm 8 m/S 734 mmHg 59%
    17:00 +9°C° 0,1 mm 7 m/S 733 mmHg 65%
    18:00 +8°C° 0,1 mm 7 m/S 733 mmHg 71%
    19:00 +6°C° 0,1 mm 7 m/S 732 mmHg 77%
    20:00 +5°C° 0,6 mm 8 m/S 732 mmHg 81%
    21:00 +5°C° 0,6 mm 8 m/S 732 mmHg 85%
    22:00 +3°C° 0,6 mm 9 m/S 732 mmHg 90%
    23:00 +3°C° 0,3 mm 9 m/S 732 mmHg 89%

    30 September, Samstag

    Zeit Temperatur Niederschläge Wind Luftdruck Luftfeuchtigkeit
    00:00 +2°C° 0,3 mm 8 m/S 732 mmHg 88%
    01:00 +1°C° 0,3 mm 8 m/S 733 mmHg 87%
    02:00 +1°C° 0,2 mm 8 m/S 734 mmHg 84%
    03:00 0°C° 0,2 mm 8 m/S 735 mmHg 81%
    04:00 0°C° 0,2 mm 8 m/S 736 mmHg 77%
    05:00 0°C° 0,1 mm 8 m/S 737 mmHg 75%
    06:00 +1°C° 0,1 mm 8 m/S 739 mmHg 73%
    07:00 +1°C° 0,1 mm 8 m/S 740 mmHg 71%
    08:00 +2°C° 0,1 mm 9 m/S 741 mmHg 67%
    09:00 +5°C° 0,1 mm 9 m/S 741 mmHg 62%
    10:00 +6°C° 0,1 mm 9 m/S 742 mmHg 58%
    11:00 +6°C° 0 mm 9 m/S 742 mmHg 59%
    12:00 +6°C° 0 mm 8 m/S 743 mmHg 59%
    13:00 +7°C° 0 mm 8 m/S 743 mmHg 60%
    14:00 +7°C° 0 mm 8 m/S 743 mmHg 62%
    15:00 +7°C° 0 mm 8 m/S 743 mmHg 63%
    16:00 +8°C° 0 mm 7 m/S 743 mmHg 65%
    17:00 +8°C° 0,1 mm 7 m/S 743 mmHg 71%
    18:00 +6°C° 0,1 mm 7 m/S 743 mmHg 76%
    19:00 +5°C° 0,1 mm 6 m/S 743 mmHg 82%
    20:00 +7°C° 0,1 mm 6 m/S 744 mmHg 83%
    21:00 +8°C° 0,1 mm 7 m/S 744 mmHg 84%
    22:00 +8°C° 0,1 mm 7 m/S 744 mmHg 85%
    23:00 +8°C° 0 mm 6 m/S 745 mmHg 85%
    Mehr zeigen